CDT,Max TemperatureF,Mean TemperatureF,Min TemperatureF,Max Dew PointF,MeanDew PointF,Min DewpointF,Max Humidity, Mean Humidity, Min Humidity, Max Sea Level PressureIn, Mean Sea Level PressureIn, Min Sea Level PressureIn, Max VisibilityMiles, Mean VisibilityMiles, Min VisibilityMiles, Max Wind SpeedMPH, Mean Wind SpeedMPH, Max Gust SpeedMPH,PrecipitationIn, CloudCover, Events, WindDirDegrees
2013-10-1,89,75,61,60,56,51,78,55,34,29.88,29.82,29.77,10,10,10,23,17,29,0.00,0,,158
2013-10-2,88,76,66,68,64,58,90,69,44,29.96,29.86,29.78,10,10,10,24,17,32,0.00,2,,162
2013-10-3,90,80,69,68,65,62,96,68,40,29.85,29.74,29.65,10,10,9,30,22,39,0.00,2,,173
2013-10-4,90,76,60,66,62,40,90,65,40,29.97,29.77,29.66,10,9,2,31,23,41,0.65,3,Rain-Thunderstorm,166
2013-10-5,69,58,48,41,34,27,61,45,21,30.15,30.08,29.97,10,10,10,26,21,37,0.00,3,,331
2013-10-6,75,62,48,43,32,24,62,36,19,30.18,30.12,30.05,10,10,10,23,14,32,0.00,0,,319
2013-10-7,75,62,48,44,40,34,74,45,23,30.20,30.13,30.07,10,10,10,12,6,,0.00,0,,58
2013-10-8,82,67,53,44,41,39,62,42,22,30.06,29.99,29.91,10,10,10,22,14,29,0.00,0,,160
2013-10-9,82,68,54,49,46,43,77,48,26,29.99,29.94,29.90,10,10,10,26,18,34,0.00,0,,165
2013-10-10,82,70,59,58,55,49,81,59,41,29.95,29.86,29.75,10,10,10,30,20,38,0.00,0,,165
2013-10-11,84,73,62,59,41,22,90,44,10,29.85,29.77,29.73,10,10,10,24,17,34,0.00,0,,204
2013-10-12,73,62,52,45,41,34,74,49,30,30.18,30.05,29.86,10,10,10,26,13,29,0.00,0,,28
2013-10-13,70,60,51,65,55,45,94,83,72,30.30,30.21,30.14,10,10,2,16,7,,0.21,7,Rain-Thunderstorm,71
2013-10-14,72,68,64,68,66,63,100,92,78,30.16,29.97,29.82,10,6,1,25,14,38,0.73,7,Rain-Thunderstorm,168
2013-10-15,68,58,48,66,45,37,94,68,44,30.17,30.05,29.86,10,10,10,30,18,39,0.01,3,Rain,357
2013-10-16,50,46,41,40,38,35,93,73,57,30.22,30.16,30.11,10,10,10,16,11,,0.03,5,,355
2013-10-17,68,54,39,44,39,36,89,61,33,30.10,30.04,29.98,10,10,6,16,8,,0.00,2,,170
2013-10-18,57,48,36,47,41,34,97,87,51,30.24,30.08,29.96,10,7,1,29,13,36,0.33,7,Rain-Thunderstorm,24
2013-10-19,66,50,35,40,35,32,92,62,27,30.23,30.13,30.02,10,10,10,16,9,23,0.00,0,,246
2013-10-20,72,58,45,49,42,36,86,61,39,30.01,29.88,29.77,10,10,10,18,13,,0.00,0,,174
2013-10-21,63,54,45,48,39,32,86,61,35,30.16,30.07,29.91,10,10,10,22,13,28,0.00,0,,14
2013-10-22,78,62,46,44,38,30,73,50,18,30.14,30.10,30.04,10,9,2,20,11,26,0.00,0,,282
2013-10-23,82,64,45,47,41,33,82,53,17,30.12,30.06,29.96,10,10,9,26,7,,0.00,0,,219
2013-10-24,60,52,44,46,38,35,86,64,41,30.38,30.27,30.10,10,10,10,22,12,28,0.00,0,,42
2013-10-25,64,52,39,48,38,30,76,62,46,30.44,30.33,30.19,10,10,10,21,11,23,0.00,2,,138
2013-10-26,71,60,48,57,49,39,97,74,58,30.21,30.14,30.07,10,9,5,24,14,32,0.02,5,,1
2013-10-27,69,53,37,49,33,24,80,53,18,30.17,30.07,29.96,10,10,6,18,8,,0.00,0,,225
2013-10-28,68,60,51,63,58,50,100,96,84,30.06,29.98,29.93,10,3,0,28,16,33,0.00,6,Fog-Rain,161
2013-10-29,78,72,66,67,64,63,96,84,62,30.01,29.93,29.86,10,9,7,23,18,30,0.00,5,,174
2013-10-30,77,72,66,67,64,54,96,81,51,29.89,29.79,29.66,10,9,2,26,20,43,0.19,5,Rain-Thunderstorm,182
2013-10-31,66,58,50,61,44,34,84,63,31,29.84,29.73,29.58,10,10,7,29,18,39,0.01,2,,262